When you browse on this site, cookies collect data to enhance your experience and personalize the content and advertising you see.
Visit our Privacy Policy to learn more. By continuing to use the site, you agree to this use of cookies and data.
  • In Portugal
  • List of Countries
  • For 7 days
  • Water Temperature
  • Satellite Maps
  • Weather Map
  • Weather Widgets
  • user-avatar
    Login

    Hourly Weather Biskupie

    Today, 22 April, Monday

    Time Temperature Precipitation Wind Pressure Humidity
    00:00 +5°C° 0 mm 3 mps 755 mmHg 84%
    01:00 +4°C° 0 mm 3 mps 755 mmHg 91%
    02:00 +4°C° 0 mm 3 mps 755 mmHg 91%
    03:00 +3°C° 0 mm 3 mps 755 mmHg 91%
    04:00 +3°C° 0 mm 3 mps 755 mmHg 91%
    05:00 +4°C° 0 mm 4 mps 755 mmHg 87%
    06:00 +5°C° 0 mm 5 mps 755 mmHg 83%
    07:00 +6°C° 0 mm 5 mps 756 mmHg 79%
    08:00 +7°C° 0 mm 6 mps 756 mmHg 77%
    09:00 +8°C° 0 mm 6 mps 756 mmHg 74%
    10:00 +9°C° 0 mm 6 mps 756 mmHg 72%
    11:00 +10°C° 0 mm 6 mps 756 mmHg 71%
    12:00 +11°C° 0 mm 6 mps 755 mmHg 70%
    13:00 +13°C° 0 mm 6 mps 755 mmHg 69%
    14:00 +14°C° 0 mm 7 mps 755 mmHg 62%
    15:00 +16°C° 0 mm 7 mps 755 mmHg 56%
    16:00 +17°C° 0 mm 7 mps 755 mmHg 50%
    17:00 +16°C° 0 mm 7 mps 755 mmHg 54%
    18:00 +14°C° 0 mm 7 mps 755 mmHg 58%
    19:00 +13°C° 0 mm 6 mps 755 mmHg 62%
    20:00 +11°C° 0 mm 6 mps 755 mmHg 61%
    21:00 +11°C° 0 mm 6 mps 755 mmHg 59%
    22:00 +10°C° 0 mm 7 mps 756 mmHg 58%
    23:00 +9°C° 0 mm 7 mps 755 mmHg 57%

    Tomorrow, 23 April, Tuesday

    Time Temperature Precipitation Wind Pressure Humidity
    00:00 +9°C° 0 mm 7 mps 755 mmHg 56%
    01:00 +8°C° 0 mm 7 mps 755 mmHg 56%
    02:00 +8°C° 0 mm 7 mps 755 mmHg 55%
    03:00 +7°C° 0 mm 8 mps 755 mmHg 55%
    04:00 +7°C° 0 mm 8 mps 754 mmHg 55%
    05:00 +7°C° 0 mm 9 mps 754 mmHg 55%
    06:00 +8°C° 0 mm 9 mps 754 mmHg 55%
    07:00 +8°C° 0 mm 10 mps 754 mmHg 55%
    08:00 +11°C° 0 mm 10 mps 754 mmHg 52%
    09:00 +12°C° 0 mm 11 mps 754 mmHg 49%
    10:00 +13°C° 0 mm 11 mps 754 mmHg 47%
    11:00 +14°C° 0 mm 11 mps 753 mmHg 45%
    12:00 +16°C° 0 mm 11 mps 753 mmHg 43%
    13:00 +17°C° 0 mm 11 mps 753 mmHg 42%
    14:00 +17°C° 0 mm 11 mps 752 mmHg 43%
    15:00 +17°C° 0 mm 11 mps 752 mmHg 44%
    16:00 +17°C° 0 mm 10 mps 752 mmHg 45%
    17:00 +16°C° 0 mm 9 mps 751 mmHg 48%
    18:00 +15°C° 0 mm 9 mps 751 mmHg 51%
    19:00 +13°C° 0 mm 8 mps 751 mmHg 54%
    20:00 +12°C° 0 mm 8 mps 751 mmHg 54%
    21:00 +12°C° 0 mm 8 mps 751 mmHg 53%
    22:00 +12°C° 0 mm 8 mps 752 mmHg 53%
    23:00 +12°C° 0 mm 8 mps 751 mmHg 55%

    Day after tomorrow, 24 April, Wednesday

    Time Temperature Precipitation Wind Pressure Humidity
    00:00 +11°C° 0 mm 8 mps 751 mmHg 56%
    01:00 +11°C° 0 mm 8 mps 751 mmHg 58%
    02:00 +10°C° 0.5 mm 8 mps 751 mmHg 64%
    03:00 +10°C° 0.5 mm 7 mps 751 mmHg 69%
    04:00 +9°C° 0.5 mm 7 mps 751 mmHg 75%
    05:00 +9°C° 0.6 mm 7 mps 751 mmHg 74%
    06:00 +10°C° 0.6 mm 7 mps 751 mmHg 74%
    07:00 +10°C° 0.6 mm 7 mps 751 mmHg 74%
    08:00 +10°C° 0.6 mm 7 mps 751 mmHg 74%
    09:00 +11°C° 0.6 mm 7 mps 751 mmHg 75%
    10:00 +11°C° 0.6 mm 6 mps 751 mmHg 75%
    11:00 +14°C° 0 mm 6 mps 751 mmHg 70%
    12:00 +16°C° 0 mm 6 mps 751 mmHg 65%
    13:00 +19°C° 0 mm 6 mps 751 mmHg 59%
    14:00 +19°C° 0 mm 5 mps 751 mmHg 62%
    15:00 +19°C° 0 mm 4 mps 751 mmHg 64%
    16:00 +18°C° 0 mm 3 mps 750 mmHg 67%
    17:00 +18°C° 0 mm 3 mps 750 mmHg 71%
    18:00 +17°C° 0 mm 3 mps 750 mmHg 75%
    19:00 +16°C° 0 mm 3 mps 750 mmHg 79%
    20:00 +14°C° 0 mm 3 mps 751 mmHg 81%
    21:00 +14°C° 0 mm 4 mps 751 mmHg 82%
    22:00 +13°C° 0 mm 4 mps 751 mmHg 84%
    23:00 +13°C° 0 mm 4 mps 751 mmHg 84%

    25 April, Thursday

    Time Temperature Precipitation Wind Pressure Humidity
    00:00 +13°C° 0 mm 4 mps 751 mmHg 84%
    01:00 +12°C° 0 mm 4 mps 751 mmHg 84%
    02:00 +12°C° 0 mm 4 mps 751 mmHg 84%
    03:00 +12°C° 0 mm 4 mps 751 mmHg 84%
    04:00 +11°C° 0 mm 4 mps 751 mmHg 84%
    05:00 +12°C° 0 mm 4 mps 751 mmHg 82%
    06:00 +14°C° 0 mm 5 mps 751 mmHg 80%
    07:00 +15°C° 0 mm 5 mps 751 mmHg 77%
    08:00 +16°C° 0 mm 5 mps 751 mmHg 72%
    09:00 +19°C° 0 mm 5 mps 751 mmHg 66%
    10:00 +21°C° 0 mm 5 mps 751 mmHg 61%
    11:00 +22°C° 0 mm 5 mps 751 mmHg 59%
    12:00 +22°C° 0 mm 5 mps 751 mmHg 57%
    13:00 +23°C° 0 mm 5 mps 751 mmHg 56%
    14:00 +23°C° 0 mm 4 mps 751 mmHg 56%
    15:00 +23°C° 0 mm 4 mps 751 mmHg 56%
    16:00 +24°C° 0 mm 3 mps 751 mmHg 56%
    17:00 +23°C° 0 mm 2 mps 751 mmHg 61%
    18:00 +20°C° 0 mm 2 mps 751 mmHg 67%
    19:00 +19°C° 0 mm 2 mps 751 mmHg 72%
    20:00 +18°C° 0 mm 2 mps 751 mmHg 75%
    21:00 +17°C° 0 mm 2 mps 751 mmHg 78%
    22:00 +17°C° 0 mm 2 mps 751 mmHg 81%
    23:00 +16°C° 0 mm 2 mps 751 mmHg 83%

    26 April, Friday

    Time Temperature Precipitation Wind Pressure Humidity
    00:00 +16°C° 0 mm 2 mps 751 mmHg 85%
    01:00 +15°C° 0 mm 2 mps 751 mmHg 86%
    02:00 +15°C° 0.1 mm 2 mps 750 mmHg 87%
    03:00 +13°C° 0.1 mm 3 mps 750 mmHg 88%
    04:00 +13°C° 0.1 mm 3 mps 750 mmHg 89%
    05:00 +14°C° 0 mm 3 mps 749 mmHg 85%
    06:00 +17°C° 0 mm 3 mps 749 mmHg 80%
    07:00 +18°C° 0 mm 4 mps 749 mmHg 76%
    08:00 +20°C° 0 mm 4 mps 748 mmHg 70%
    09:00 +21°C° 0 mm 4 mps 748 mmHg 64%
    10:00 +23°C° 0 mm 4 mps 748 mmHg 58%
    11:00 +23°C° 0 mm 4 mps 747 mmHg 56%
    12:00 +25°C° 0 mm 4 mps 747 mmHg 54%
    13:00 +26°C° 0 mm 4 mps 747 mmHg 52%
    14:00 +26°C° 0 mm 4 mps 746 mmHg 51%
    15:00 +26°C° 0 mm 4 mps 746 mmHg 51%
    16:00 +27°C° 0 mm 4 mps 746 mmHg 50%
    17:00 +25°C° 0.7 mm 4 mps 746 mmHg 58%
    18:00 +22°C° 0.7 mm 3 mps 746 mmHg 66%
    19:00 +20°C° 0.7 mm 3 mps 746 mmHg 73%
    20:00 +19°C° 0.7 mm 4 mps 746 mmHg 79%
    21:00 +17°C° 0.7 mm 5 mps 747 mmHg 84%
    22:00 +16°C° 0.7 mm 6 mps 747 mmHg 89%
    23:00 +15°C° 0.3 mm 6 mps 748 mmHg 90%

    27 April, Saturday

    Time Temperature Precipitation Wind Pressure Humidity
    00:00 +14°C° 0.3 mm 7 mps 748 mmHg 90%
    01:00 +12°C° 0.3 mm 7 mps 749 mmHg 90%
    02:00 +12°C° 0 mm 7 mps 750 mmHg 90%
    03:00 +11°C° 0 mm 7 mps 750 mmHg 90%
    04:00 +10°C° 0 mm 7 mps 751 mmHg 90%
    05:00 +10°C° 0 mm 7 mps 751 mmHg 89%
    06:00 +10°C° 0 mm 6 mps 752 mmHg 88%
    07:00 +10°C° 0 mm 6 mps 752 mmHg 87%
    08:00 +10°C° 0 mm 6 mps 753 mmHg 85%
    09:00 +10°C° 0 mm 6 mps 753 mmHg 84%
    10:00 +10°C° 0 mm 6 mps 754 mmHg 82%
    11:00 +11°C° 0 mm 6 mps 754 mmHg 79%
    12:00 +12°C° 0 mm 5 mps 754 mmHg 76%
    13:00 +13°C° 0 mm 5 mps 754 mmHg 72%
    14:00 +14°C° 0 mm 4 mps 754 mmHg 69%
    15:00 +15°C° 0 mm 4 mps 754 mmHg 65%
    16:00 +16°C° 0 mm 3 mps 754 mmHg 61%
    17:00 +16°C° 0 mm 3 mps 754 mmHg 65%
    18:00 +14°C° 0 mm 3 mps 754 mmHg 68%
    19:00 +14°C° 0 mm 2 mps 755 mmHg 71%
    20:00 +12°C° 0 mm 3 mps 755 mmHg 73%
    21:00 +11°C° 0 mm 3 mps 755 mmHg 75%
    22:00 +10°C° 0 mm 3 mps 755 mmHg 78%
    23:00 +10°C° 0 mm 3 mps 755 mmHg 81%
    Show more